This is the latest recevied weather packets stored in our database for station/object N4ZIQ. If no packets are shown the sender has not sent any weather packets the latest 10 day(s).
| Time | Temp. | Humidity | Pressure | Rain* | Wind** | Luminosity | Snow |
|---|---|---|---|---|---|---|---|
| 1777554646 | 23.89° C | 90% | 1013.3 hPa | 0 mm | - | 519 W/m² | - |
| 1777554347 | 22.78° C | 91% | 1013.3 hPa | 0 mm | - | 490 W/m² | - |
| 1777554069 | 22.78° C | 91% | 1013.4 hPa | 0 mm | - | 121 W/m² | - |
| 1777553747 | 22.78° C | 92% | 1013.3 hPa | 0 mm | - | 113 W/m² | - |
| 1777553447 | 22.78° C | 93% | 1013.2 hPa | 0 mm | - | 141 W/m² | - |
| 1777553154 | 22.78° C | 93% | 1013.3 hPa | 0 mm | - | 174 W/m² | - |
| 1777552847 | 22.22° C | 93% | 1013.2 hPa | 0 mm | - | 151 W/m² | - |
| 1777552547 | 22.22° C | 94% | 1013.1 hPa | 0 mm | - | 128 W/m² | - |
| 1777552255 | 22.22° C | 94% | 1013 hPa | 0 mm | - | 104 W/m² | - |
| 1777551951 | 22.22° C | 94% | 1012.9 hPa | 0 mm | - | 107 W/m² | - |
| 1777551647 | 21.67° C | 95% | 1012.9 hPa | 0 mm | - | 109 W/m² | - |
| 1777551356 | 21.67° C | 95% | 1012.9 hPa | 0 mm | - | 95 W/m² | - |
| 1777551047 | 21.67° C | 95% | 1012.8 hPa | 0 mm | - | 72 W/m² | - |
| 1777550748 | 21.67° C | 95% | 1012.9 hPa | 0 mm | - | 72 W/m² | - |
| 1777550453 | 21.67° C | 95% | 1012.7 hPa | 0 mm | - | 79 W/m² | - |
| 1777550148 | 21.67° C | 95% | 1012.5 hPa | 0 mm | - | 83 W/m² | - |
| 1777549846 | 21.67° C | 95% | 1012.7 hPa | 0 mm | - | 65 W/m² | - |
| 1777549550 | 21.67° C | 96% | 1012.6 hPa | 0 mm | - | 60 W/m² | - |
| 1777549246 | 21.11° C | 95% | 1012.6 hPa | 0 mm | - | 58 W/m² | - |
| 1777548948 | 21.11° C | 96% | 1012.6 hPa | 0 mm | - | 56 W/m² | - |
| 1777548652 | 21.11° C | 96% | 1012.5 hPa | 0 mm | - | 56 W/m² | - |
| 1777548345 | 21.11° C | 96% | 1012.4 hPa | 0 mm | - | 44 W/m² | - |
| 1777548047 | 20.56° C | 96% | 1012.4 hPa | 0 mm | - | 40 W/m² | - |
| 1777547757 | 20.56° C | 96% | 1012.3 hPa | 0 mm | - | 37 W/m² | - |
| 1777547448 | 19.44° C | 95% | 1012.1 hPa | 0 mm | - | 30 W/m² | - |
* Rain latest hour (hover to see other rain measurements)
** Current wind speed in m/s (hover to see current wind gust speed)